GPM-CORE

Last updated on Sun Aug 31 2025 00:02:30 GMT+0000 (Coordinated Universal Time)

1 39574U 14009C 25242.13350237 .00010803 00000+0 23833-3 0 9994 2 39574 64.9760 203.0473 0006667 254.9223 105.1180 15.44290280652850
UTC large
Height (km)
Speed (km/s)
/
Latitude / Longitude
Inclination (degrees)
Orbital Period (minutes)
Azimuth
Elevation
Range (km)
Doppler Factor

Next 0 passes for location: London (51.5072 / 0.1276)

Sorry there are no passes over London.